sat.trackr.live / text

‹ back to catalog

STARLINK-30315

NORAD 57708 · 2023-129L

PAYLOAD ACTIVE UNKNOWN

§ Identity

Operator
Country
US
Launch date
2023-08-27
Launch site
AFETR
Launch vehicle
Mass (kg)
RCS (m²)

Purposes: comms

External: N2YO · Heavens-Above · Gunter

§ Orbital elements

Epoch: 2026-05-25T03:05:47.770368Z

Period
94.27 min
Inclination
43.0037°
Eccentricity
0.0001581
Mean motion
15.27597607 rev/d
Perigee alt
481.9 km
Apogee alt
484.1 km
Semi-major
6,861.1 km
B*
-5.0748e-5
RAAN
46.1597°
Arg perigee
255.1116°
Mean anomaly
104.9561°
Rev number
15,237

§ Raw data

STARLINK-303151 57708U 23129L   26145.12902512 -.00001659  00000+0 -50748-4 0  99942 57708  43.0037  46.1597 0001581 255.1116 104.9561 15.27597607152377

JSON: /api/v1/satellites/57708 · /tle

For live sub-satellite position, see the globe view (requires WebGL).

§ Visibility from observer

Set your observer location to see the next 7 days of passes ≥ 10°. The values pass through the URL so the page stays shareable.

No JS? Fill the form by hand. The geolocation button needs JavaScript.